[[{"header":{"parameterUnit":"m.s-1","parameterCategory":1,"la1":30.2991,"la2":30.254,"lo1":-89.0895,"lo2":-89.0444,"dy":0.0017,"dx":0.0017,"nx":28,"ny":28,"refTime":"2023-08-28T21:00:00:Z","depth":0,"parameterNumber":2,"parameterNumberName":"U-component_of_WINDS"},"data":[0,0,0,0,0,0,0,0,0,0,0,0,0,0,0,0,0,0,0,0,0,0,0,0,0,0,0,0,0,0,0,0,0,0,0,0,0,0,0,0,0,0,0,0,0,0,0,0,0,0,0,0,0,0,0,0,0,0,1.7443,1.7444,0,1.7557,1.7558,1.7559,1.7596,1.7595,1.7595,1.7594,1.7712,1.7716,1.772,0,0,0,0,0,0,0,0,0,0,0,0,0,1.7258,1.7262,1.7442,1.7444,1.7445,1.7556,1.7558,1.756,1.7596,1.7595,1.7594,1.7594,1.7711,1.7716,1.772,0,0,0,0,0,0,0,0,0,0,0,0,0,1.7352,1.7263,1.7442,1.7477,1.7481,1.7556,1.7558,1.756,1.7596,1.7595,1.7594,1.7594,1.771,1.7715,1.7721,1.777,0,0,1.7737,1.774,0,0,0,0,0,0,0,0,1.7347,1.7359,1.747,1.7474,1.7479,1.7561,1.7537,1.7631,1.7596,1.7552,1.7594,1.7593,1.7663,1.7672,1.7695,1.7776,1.7781,1.7738,1.7741,1.7743,1.7745,0,0,0,0,0,0,0,1.734,1.7354,1.7488,1.7472,1.7477,1.7487,1.75,1.7555,1.7611,1.7556,1.7559,1.7572,1.7665,1.769,1.7698,1.7783,1.7738,1.7742,1.7746,1.7748,1.7912,1.7913,0,0,0,0,0,0,1.7328,1.7348,1.7484,1.7491,1.741,1.7491,1.7505,1.7536,1.761,1.7621,1.7572,1.7573,1.7681,1.7692,1.7703,1.7767,1.7743,1.7748,1.7752,1.7911,1.7912,1.7913,0,0,0,0,0,0,1.7323,1.7339,1.748,1.7421,1.7439,1.7495,1.7529,1.7538,1.7563,1.7623,1.7633,1.7587,1.7681,1.7695,1.7754,1.7772,1.7751,1.7756,1.791,1.7911,1.7913,1.7895,0,0,0,0,0,0,1.7318,1.7338,1.7356,1.7421,1.7442,1.7527,1.753,1.7541,1.7572,1.7574,1.7639,1.7649,1.7681,1.7745,1.7759,1.7779,1.776,1.7908,1.791,1.7912,1.7895,1.7896,1.7898,0,0,0,0,0,1.7311,1.7347,1.7357,1.7373,1.7467,1.7528,1.7541,1.7576,1.7573,1.7593,1.7632,1.7647,1.7767,1.7751,1.7767,1.7788,1.7907,1.791,1.7912,1.7894,1.7896,1.7897,0,0,0,0,0,0,1.7283,1.7356,1.7368,1.7425,1.747,1.7534,1.756,1.7577,1.7624,1.7624,1.7667,1.7682,1.7737,1.7769,1.7749,1.7842,1.7838,1.7844,1.7819,1.7821,1.7823,1.7814,1.7765,0,0,0,0,0,1.7283,1.7327,1.7388,1.7433,1.7455,1.7504,1.7532,1.7556,1.7604,1.7624,1.7666,1.7714,1.7763,1.7794,1.7842,1.7899,1.7915,1.7922,1.7924,1.7925,1.7929,1.7964,1.7969,1.7921,1.7921,1.7921,0,0,1.7284,1.733,1.7354,1.7428,1.7466,1.7511,1.7519,1.7566,1.7601,1.7631,1.7689,1.7722,1.7778,1.7837,1.7865,1.7865,1.7946,1.7928,1.7928,1.7932,1.7967,1.7972,1.7976,1.7923,1.7923,1.7922,0,0,1.731,1.7348,1.739,1.7428,1.7485,1.7517,1.7528,1.759,1.7613,1.7672,1.7696,1.7738,1.782,1.786,1.7891,1.7933,1.7949,1.7947,1.7955,1.7989,1.7992,1.7996,1.8012,1.8018,1.7952,1.7952,1.7952,0,1.7304,1.7372,1.7409,1.7455,1.7488,1.7518,1.7562,1.7597,1.7667,1.7689,1.7688,1.7793,1.7833,1.7902,1.7913,1.7936,1.795,1.794,1.7989,1.7993,1.7997,1.8013,1.8019,1.7951,1.7951,1.7951,1.7951,0,1.7363,1.741,1.7437,1.7504,1.754,1.7584,1.763,1.7661,1.7683,1.7716,1.7776,1.7825,1.7884,1.7902,1.7923,1.7976,1.7974,1.798,1.7978,1.8,1.8016,1.8022,1.795,1.795,1.7951,1.7951,0,0,1.7373,1.7461,1.747,1.7502,1.7568,1.7606,1.7652,1.771,1.7737,1.7785,1.7826,1.7896,1.7903,1.7938,1.7964,1.7993,1.8025,1.7996,1.7998,1.8001,1.8088,1.8083,1.809,1.8037,1.8038,1.8039,1.8084,0,1.7407,1.7491,1.7527,1.7595,1.764,1.767,1.7711,1.7757,1.7789,1.7833,1.7869,1.7919,1.7923,1.7945,1.7975,1.8015,1.8044,1.8012,1.8077,1.8079,1.8062,1.8098,1.8093,1.8132,1.809,1.8091,1.8092,0,1.7458,1.7507,1.7579,1.7642,1.7662,1.7698,1.7755,1.7796,1.7849,1.7871,1.7911,1.7935,1.7987,1.7981,1.8054,1.8032,1.8061,1.8085,1.8087,1.8095,1.8087,1.8108,1.8146,1.8152,1.8102,1.8101,1.81,0,1.746,1.7543,1.7598,1.7624,1.7697,1.7722,1.7754,1.7807,1.784,1.789,1.7912,1.7967,1.7998,1.8041,1.8081,1.8072,1.815,1.8147,1.8171,1.817,1.8187,1.8185,1.8231,1.8204,1.8204,1.8203,1.8203,0,1.7495,1.7538,1.7599,1.7633,1.7683,1.7725,1.7774,1.7808,1.7855,1.7896,1.7926,1.7965,1.8014,1.806,1.8092,1.8148,1.8162,1.8182,1.819,1.818,1.8177,1.8199,1.8198,1.8205,1.8205,1.8204,1.8204,0,1.7505,1.7547,1.7609,1.7674,1.7691,1.7726,1.7782,1.7817,1.7851,1.7904,1.7919,1.7973,1.8029,1.8073,1.8145,1.8166,1.8226,1.8235,1.8208,1.8213,1.8235,1.8232,1.8297,1.8308,1.8272,1.8272,1.8273,0,1.7525,1.7559,1.7628,1.7658,1.769,1.7738,1.7772,1.7814,1.7849,1.7913,1.794,1.7998,1.8046,1.8134,1.818,1.8237,1.8247,1.8266,1.8256,1.8245,1.8249,1.8247,1.8251,1.8267,1.8267,1.8267,1.8268,0,1.7556,1.7576,1.7623,1.7679,1.7719,1.7764,1.7811,1.7834,1.7886,1.7923,1.798,1.8018,1.8092,1.815,1.8211,1.8245,1.8266,1.827,1.8279,1.8269,1.8253,1.8264,1.8212,1.8269,1.8269,1.8269,1.8269,1.8268,1.7572,1.7605,1.7659,1.7712,1.7751,1.7795,1.7831,1.787,1.7918,1.7982,1.8004,1.8063,1.8118,1.8202,1.8237,1.8285,1.8286,1.8299,1.8302,1.8305,1.8304,1.8245,1.8296,1.8296,1.8296,1.8296,1.8296,0,1.7606,1.7643,1.7691,1.7755,1.7797,1.7812,1.7865,1.7899,1.7951,1.8,1.8047,1.8113,1.817,1.8221,1.8281,1.8309,1.832,1.8323,1.8322,1.833,1.8299,1.8286,1.8314,1.8314,1.8314,1.8314,1.8314,1.8313,1.7629,1.7685,1.7711,1.7788,1.7825,1.7883,1.7912,1.7953,1.7992,1.8065,1.8112,1.8145,1.8196,1.8259,1.8312,1.8326,1.8347,1.8348,1.8364,1.8334,1.8332,1.833,1.8318,1.8352,1.8352,1.8392,1.8392,1.8392]},{"header":{"parameterUnit":"m.s-1","parameterCategory":1,"la1":30.2991,"la2":30.254,"lo1":-89.0895,"lo2":-89.0444,"dy":0.0017,"dx":0.0017,"nx":28,"ny":28,"refTime":"2023-08-28T21:00:00:Z","depth":0,"parameterNumber":3,"parameterNumberName":"V-component_of_WINDS"},"data":[0,0,0,0,0,0,0,0,0,0,0,0,0,0,0,0,0,0,0,0,0,0,0,0,0,0,0,0,0,0,0,0,0,0,0,0,0,0,0,0,0,0,0,0,0,0,0,0,0,0,0,0,0,0,0,0,0,0,-3.8471,-3.8471,0,-3.8541,-3.8542,-3.8543,-3.8588,-3.8588,-3.8588,-3.8589,-3.8656,-3.8657,-3.8659,0,0,0,0,0,0,0,0,0,0,0,0,0,-3.837,-3.8372,-3.847,-3.8471,-3.8472,-3.8541,-3.8542,-3.8543,-3.8588,-3.8588,-3.8588,-3.8589,-3.8655,-3.8657,-3.8659,0,0,0,0,0,0,0,0,0,0,0,0,0,-3.8425,-3.8373,-3.847,-3.8503,-3.8507,-3.8541,-3.8542,-3.8543,-3.8588,-3.8588,-3.8589,-3.8589,-3.8655,-3.8657,-3.8659,-3.8665,0,0,-3.8666,-3.8667,0,0,0,0,0,0,0,0,-3.8421,-3.8428,-3.8497,-3.8501,-3.8505,-3.8556,-3.8532,-3.8584,-3.8588,-3.8557,-3.8589,-3.8589,-3.8622,-3.8627,-3.8639,-3.8668,-3.8671,-3.8667,-3.8668,-3.8669,-3.867,0,0,0,0,0,0,0,-3.8418,-3.8425,-3.8498,-3.8498,-3.8503,-3.8513,-3.8521,-3.8542,-3.8586,-3.8559,-3.8563,-3.8571,-3.8624,-3.8637,-3.8641,-3.8672,-3.8666,-3.8669,-3.867,-3.8671,-3.8711,-3.871,0,0,0,0,0,0,-3.8409,-3.8422,-3.8496,-3.8501,-3.8464,-3.8514,-3.8524,-3.8539,-3.8586,-3.8594,-3.8571,-3.8573,-3.8633,-3.8638,-3.8644,-3.8654,-3.8669,-3.8671,-3.8672,-3.8711,-3.8711,-3.871,0,0,0,0,0,0,-3.8407,-3.8416,-3.8493,-3.8462,-3.8473,-3.8516,-3.8533,-3.854,-3.8553,-3.8594,-3.8602,-3.8576,-3.8633,-3.864,-3.866,-3.8657,-3.8672,-3.8674,-3.8711,-3.8711,-3.871,-3.8675,0,0,0,0,0,0,-3.8404,-3.8414,-3.8418,-3.8462,-3.8475,-3.8509,-3.8533,-3.8542,-3.8558,-3.8561,-3.8601,-3.8608,-3.8634,-3.8656,-3.8662,-3.8661,-3.8676,-3.8712,-3.8711,-3.8711,-3.8677,-3.8673,-3.8671,0,0,0,0,0,-3.84,-3.8403,-3.8418,-3.8426,-3.848,-3.8509,-3.8516,-3.8548,-3.8557,-3.8561,-3.8587,-3.8607,-3.8657,-3.8658,-3.8665,-3.8664,-3.8712,-3.8711,-3.8711,-3.8678,-3.8674,-3.8671,0,0,0,0,0,0,-3.8355,-3.841,-3.8426,-3.8444,-3.8472,-3.8517,-3.8522,-3.8542,-3.8566,-3.8568,-3.8605,-3.8613,-3.8629,-3.8649,-3.8649,-3.8673,-3.8687,-3.8687,-3.8659,-3.8656,-3.8653,-3.8648,-3.8678,0,0,0,0,0,-3.8348,-3.8369,-3.8415,-3.8426,-3.8439,-3.8478,-3.8492,-3.8514,-3.8544,-3.8555,-3.8583,-3.861,-3.8632,-3.8645,-3.8667,-3.868,-3.8689,-3.8683,-3.868,-3.8677,-3.8677,-3.8686,-3.8684,-3.8708,-3.8708,-3.8708,0,0,-3.8332,-3.8364,-3.8375,-3.8418,-3.8442,-3.8462,-3.8488,-3.8507,-3.8522,-3.8557,-3.8578,-3.86,-3.8632,-3.8649,-3.8657,-3.8665,-3.8673,-3.8676,-3.8674,-3.8675,-3.8685,-3.8682,-3.868,-3.8707,-3.8708,-3.8708,0,0,-3.8313,-3.834,-3.8353,-3.8377,-3.8414,-3.8441,-3.8444,-3.8486,-3.8502,-3.8525,-3.8552,-3.857,-3.8606,-3.8629,-3.8645,-3.8637,-3.8655,-3.8643,-3.8627,-3.8635,-3.8633,-3.8631,-3.8628,-3.8627,-3.8643,-3.8643,-3.8642,0,-3.8287,-3.832,-3.8356,-3.8375,-3.8393,-3.8429,-3.8442,-3.8464,-3.8505,-3.8516,-3.8525,-3.8574,-3.8598,-3.862,-3.8619,-3.863,-3.8634,-3.8638,-3.8631,-3.8629,-3.8628,-3.8626,-3.8625,-3.8641,-3.8641,-3.8641,-3.8641,0,-3.8287,-3.8309,-3.8315,-3.8357,-3.8376,-3.8391,-3.8429,-3.8444,-3.8465,-3.849,-3.8512,-3.8543,-3.8573,-3.858,-3.8599,-3.8605,-3.8609,-3.8624,-3.8639,-3.8624,-3.8622,-3.8621,-3.8638,-3.8639,-3.8639,-3.864,0,0,-3.8239,-3.8304,-3.8305,-3.8325,-3.837,-3.8387,-3.8405,-3.8436,-3.8448,-3.8476,-3.8491,-3.8522,-3.8537,-3.8555,-3.8578,-3.8585,-3.8577,-3.8599,-3.86,-3.8594,-3.8586,-3.8574,-3.8572,-3.8591,-3.8591,-3.8591,-3.8583,0,-3.8227,-3.8262,-3.8296,-3.8318,-3.8339,-3.8375,-3.839,-3.8418,-3.8443,-3.8463,-3.8489,-3.8511,-3.8529,-3.854,-3.8549,-3.8576,-3.8576,-3.8577,-3.8604,-3.8604,-3.8594,-3.8572,-3.8559,-3.855,-3.8583,-3.8583,-3.8583,0,-3.8216,-3.8245,-3.827,-3.8315,-3.8325,-3.8338,-3.837,-3.839,-3.8423,-3.844,-3.8462,-3.8487,-3.8506,-3.8519,-3.8546,-3.8546,-3.8559,-3.8575,-3.8575,-3.8578,-3.8592,-3.8573,-3.8548,-3.8547,-3.8582,-3.8582,-3.8582,0,-3.8179,-3.8224,-3.8245,-3.8262,-3.8314,-3.8323,-3.8345,-3.8379,-3.8396,-3.8423,-3.8435,-3.8464,-3.8479,-3.85,-3.8532,-3.8539,-3.8556,-3.8571,-3.8569,-3.8569,-3.857,-3.8569,-3.8546,-3.858,-3.858,-3.858,-3.858,0,-3.8161,-3.8174,-3.823,-3.8242,-3.8259,-3.8298,-3.8313,-3.8338,-3.8368,-3.8386,-3.8418,-3.8434,-3.8475,-3.8495,-3.852,-3.8539,-3.8545,-3.8559,-3.8565,-3.8556,-3.8554,-3.8564,-3.8565,-3.8579,-3.8579,-3.8579,-3.8579,0,-3.8121,-3.8159,-3.8184,-3.8233,-3.8246,-3.8256,-3.8297,-3.831,-3.8338,-3.836,-3.8367,-3.8409,-3.8434,-3.8469,-3.8504,-3.8521,-3.8536,-3.8547,-3.8526,-3.8529,-3.8525,-3.8525,-3.8507,-3.8507,-3.854,-3.854,-3.854,0,-3.8107,-3.8118,-3.817,-3.8185,-3.8207,-3.823,-3.8249,-3.8288,-3.8306,-3.8346,-3.8355,-3.8384,-3.8408,-3.8448,-3.848,-3.8508,-3.8519,-3.8511,-3.8523,-3.8513,-3.8518,-3.8517,-3.8518,-3.8507,-3.8507,-3.8506,-3.8506,0,-3.8077,-3.8096,-3.8122,-3.8156,-3.8178,-3.8205,-3.8234,-3.8244,-3.829,-3.8308,-3.8336,-3.8355,-3.8394,-3.8421,-3.8454,-3.8475,-3.8498,-3.8502,-3.8503,-3.8493,-3.848,-3.8487,-3.8517,-3.8502,-3.8502,-3.8503,-3.8503,-3.8503,-3.8049,-3.8062,-3.8101,-3.8129,-3.8156,-3.8183,-3.8199,-3.8229,-3.8254,-3.8289,-3.8311,-3.8338,-3.8372,-3.8418,-3.8439,-3.846,-3.8469,-3.847,-3.847,-3.847,-3.8467,-3.8478,-3.8466,-3.8466,-3.8466,-3.8466,-3.8467,0,-3.8021,-3.8048,-3.8075,-3.8116,-3.8138,-3.8161,-3.8194,-3.8211,-3.8235,-3.8266,-3.8291,-3.8324,-3.8352,-3.8388,-3.8418,-3.8428,-3.8439,-3.8434,-3.8433,-3.8438,-3.8457,-3.8453,-3.8425,-3.8425,-3.8425,-3.8425,-3.8425,-3.8425,-3.8009,-3.8032,-3.8055,-3.8092,-3.8119,-3.8148,-3.8165,-3.819,-3.8215,-3.8251,-3.8275,-3.83,-3.8333,-3.8366,-3.8392,-3.8402,-3.8411,-3.8403,-3.8416,-3.8433,-3.8436,-3.844,-3.8437,-3.8405,-3.8405,-3.8395,-3.8395,-3.8395]}]]